DECAYED

OBJECT C, 53369 (Decayed)

Orbit data source: Space-Track

You're viewing an Uncataloged Satellite

Recently launched and/or uncataloged satellites may have evolving metadata. Metadata may include but not limited to: Owner, Maufacturer, Bus, Motor, and Mission.

OBJECT C, 53369 was a Chinese satellite in LEO that was launched on Tue, 09 Aug 2022 UTC via a GUSHENXING 1 launch vehicle from the Jiuquan Satellite Launch Center, China (JSC). Unknown objects in Earth's orbit typically refer to objects detected orbiting the Earth but have not yet been identified or cataloged. These objects could be anything from previously untracked satellites, spent rocket stages, debris from satellite collisions, or even natural meteoroids temporarily captured by Earth's gravity. This object's orbit decayed before it could be identified.

Not visible in the next 10 days
Identifier
53369, 2022-095C
Orbit
Decayed
Country
Flag of CNCN / PRC
Related business
None
Manufacturer
Unknown
Mission
Decayed Commercial Imaging
Bus & Motor
Unknown
Mass
Unknown
Launch date (UTC)
2022-08-09 (4 years ago)
Launch vehicle
GUSHENXING 1
Launch site
Jiuquan Satellite Launch Center, China (JSC)
Object type
Unknown
Shape & HBR
Box, 0.3 m
Radar Cross Section
0.195 m², Medium (>0.1 m² and < 1m²)

Expand to show TLE details & history
Last TLE update: 1 year ago

TLE from 1 year ago
0 OBJECT C
1 53369U 22095C   25006.29647337  .07276940  25048-5  67146-3 0  9994
2 53369  97.3045 103.1831 0006190 253.9231 106.1387 16.38878278135704
Epoch: 2025-01-06T07:06Z
TLE epoch observation values (Epoch: 2025-01-06T07:06:55.299Z)
Latitude
0.00002°
Longitude
-109.66734°
Altitude
173.17 km
Speed
7.802 km/s
True Right ascension
06h 52m 43s
True Declination
0° 00' 00"
Sunlit
Object was in full shadow at epoch
Visualization orbit readout
Latitude
Unknown
Longitude
Unknown
Altitude
Unknown
Speed
Unknown
Apparent Right ascension
Unknown
Apparent Declination
Unknown
Sunlit
N/A
Visualization observer readout
Local Sidereal Time
21:35:08
Azimuth
Unknown
Elevation
Unknown
Doppler factor
Unknown
Orbital elements
Apogee altitude
169.643 km
Perigee altitude
161.542 km
Semi-major axis
6,543.73 km
Eccentricity
0.00062
Inclination
97.3045°
RAAN
103.1831°
Arg. of periapsis
253.9231°
True anomaly
106.20682°
Mean anomaly
106.1387°
Eccentric anomaly
106.17276°
Mean motion
4.1002 °/min
Orbital period
87.8 mins
BSTAR
0.00067146
Loading maneuver chart data...
Computing Atmospheric mass density...
Loading historical data...
Loading historical data...
Loading historical data...
Loading historical data...
Loading historical data...
Loading historical data...
Loading historical data...
Other satellites on launch #95 in the year 2022 (2022-08-09 UTC)

Documentation

Showing up to 5 results
|